[[{"header":{"parameterUnit":"m.s-1","parameterCategory":1,"la1":30.2991,"la2":30.254,"lo1":-89.0895,"lo2":-89.0444,"dy":0.0017,"dx":0.0017,"nx":28,"ny":28,"refTime":"2023-10-11T03:00:00:Z","depth":0,"parameterNumber":2,"parameterNumberName":"U-component_of_WINDS"},"data":[0,0,0,0,0,0,0,0,0,0,0,0,0,0,0,0,0,0,0,0,0,0,0,0,0,0,0,0,0,0,0,0,0,0,0,0,0,0,0,0,0,0,0,0,0,0,0,0,0,0,0,0,0,0,0,0,0,0,-6.3772,-6.3775,0,-6.4011,-6.4014,-6.4017,-6.3858,-6.3851,-6.3844,-6.3837,-6.4093,-6.4107,-6.412,0,0,0,0,0,0,0,0,0,0,0,0,0,-6.3192,-6.3203,-6.3772,-6.3775,-6.3778,-6.4011,-6.4014,-6.4017,-6.3859,-6.3851,-6.3842,-6.3833,-6.4089,-6.4105,-6.4121,0,0,0,0,0,0,0,0,0,0,0,0,0,-6.3439,-6.3207,-6.3772,-6.3727,-6.3725,-6.401,-6.4014,-6.4018,-6.3861,-6.385,-6.3839,-6.3829,-6.4084,-6.4103,-6.4124,-6.4469,0,0,-6.4186,-6.4195,0,0,0,0,0,0,0,0,-6.3425,-6.3461,-6.3731,-6.3731,-6.3729,-6.3893,-6.3903,-6.417,-6.3864,-6.381,-6.3836,-6.3824,-6.4037,-6.406,-6.4129,-6.4481,-6.4492,-6.4188,-6.42,-6.4209,-6.4215,0,0,0,0,0,0,0,-6.3408,-6.3449,-6.3867,-6.3735,-6.3734,-6.3699,-6.3722,-6.3953,-6.3982,-6.3814,-6.3803,-6.3833,-6.4034,-6.411,-6.4134,-6.4496,-6.4187,-6.4206,-6.4218,-6.4226,-6.5148,-6.5159,0,0,0,0,0,0,-6.3393,-6.3436,-6.3859,-6.3874,-6.3547,-6.3719,-6.3744,-6.3852,-6.3979,-6.3988,-6.3842,-6.3825,-6.408,-6.4111,-6.4143,-6.4559,-6.4209,-6.4228,-6.424,-6.5136,-6.5151,-6.5164,0,0,0,0,0,0,-6.3381,-6.3432,-6.385,-6.3652,-6.3703,-6.374,-6.3863,-6.3863,-6.3938,-6.4,-6.4006,-6.3913,-6.4073,-6.4114,-6.4389,-6.4566,-6.4237,-6.4256,-6.5121,-6.514,-6.5157,-6.5393,0,0,0,0,0,0,-6.3365,-6.3429,-6.3558,-6.3656,-6.3714,-6.409,-6.3873,-6.3875,-6.3972,-6.3952,-6.4069,-6.4078,-6.4068,-6.436,-6.441,-6.4588,-6.4272,-6.5106,-6.513,-6.5151,-6.5369,-6.5417,-6.5457,0,0,0,0,0,-6.3345,-6.3616,-6.3565,-6.3617,-6.3875,-6.41,-6.4133,-6.4112,-6.3987,-6.4119,-6.4159,-6.4074,-6.4537,-6.4389,-6.4444,-6.4631,-6.5095,-6.5123,-6.515,-6.535,-6.5407,-6.5456,0,0,0,0,0,0,-6.3541,-6.3628,-6.3573,-6.3882,-6.3985,-6.4072,-6.4238,-6.4174,-6.4316,-6.4292,-6.4264,-6.4292,-6.4581,-6.4632,-6.4466,-6.4974,-6.4797,-6.4837,-6.493,-6.4986,-6.5029,-6.5012,-6.4289,0,0,0,0,0,-6.362,-6.3791,-6.3859,-6.4127,-6.418,-6.4201,-6.4298,-6.4273,-6.4379,-6.4423,-6.4483,-6.4593,-6.4763,-6.4877,-6.5036,-6.5375,-6.5401,-6.5531,-6.5575,-6.561,-6.5647,-6.5835,-6.5895,-6.5254,-6.5254,-6.5253,0,0,-6.3786,-6.3854,-6.3965,-6.4168,-6.4244,-6.4427,-6.4239,-6.4439,-6.4576,-6.4454,-6.4718,-6.4767,-6.4888,-6.5197,-6.5336,-6.525,-6.5829,-6.5646,-6.5674,-6.5691,-6.5869,-6.593,-6.5984,-6.5273,-6.5269,-6.5266,0,0,-6.4182,-6.4249,-6.448,-6.456,-6.4676,-6.4688,-6.4744,-6.4843,-6.4869,-6.5132,-6.5046,-6.521,-6.5503,-6.5594,-6.5679,-6.6111,-6.604,-6.6164,-6.6396,-6.6579,-6.6629,-6.6674,-6.6833,-6.689,-6.6199,-6.62,-6.62,0,-6.4375,-6.4642,-6.4609,-6.4817,-6.4911,-6.4805,-6.5043,-6.5123,-6.5288,-6.5358,-6.5256,-6.5624,-6.5697,-6.6029,-6.6134,-6.6205,-6.6272,-6.6152,-6.6624,-6.6668,-6.671,-6.6861,-6.6921,-6.6214,-6.6213,-6.6211,-6.621,0,-6.4876,-6.5064,-6.5237,-6.5396,-6.5509,-6.5731,-6.5736,-6.5855,-6.5821,-6.5845,-6.6117,-6.6202,-6.6379,-6.6454,-6.6424,-6.6784,-6.6727,-6.6625,-6.6447,-6.6786,-6.6928,-6.6986,-6.6235,-6.623,-6.6226,-6.6222,0,0,-6.5405,-6.5541,-6.5606,-6.5678,-6.5799,-6.5946,-6.6165,-6.6334,-6.644,-6.6557,-6.6744,-6.6995,-6.6902,-6.6998,-6.6977,-6.7137,-6.748,-6.7017,-6.7019,-6.7104,-6.7888,-6.7967,-6.8034,-6.7432,-6.7442,-6.7451,-6.7879,0,-6.5811,-6.6189,-6.6166,-6.6523,-6.6699,-6.6602,-6.6793,-6.6891,-6.692,-6.7077,-6.7109,-6.7289,-6.7151,-6.7209,-6.7362,-6.7406,-6.7638,-6.7374,-6.7611,-6.762,-6.7588,-6.8107,-6.8191,-6.8591,-6.7934,-6.7944,-6.795,0,-6.6336,-6.6469,-6.6843,-6.694,-6.7013,-6.7185,-6.7341,-6.7489,-6.76,-6.761,-6.7718,-6.7671,-6.7897,-6.771,-6.8025,-6.7846,-6.7941,-6.7978,-6.7993,-6.8018,-6.7809,-6.8152,-6.8717,-6.878,-6.8037,-6.803,-6.8023,0,-6.669,-6.6962,-6.7222,-6.7287,-6.7405,-6.7529,-6.7585,-6.7684,-6.7789,-6.7925,-6.7994,-6.8157,-6.8248,-6.8377,-6.8377,-6.8239,-6.8698,-6.8509,-6.8717,-6.8718,-6.8822,-6.8816,-6.9416,-6.8876,-6.8875,-6.8874,-6.8872,0,-6.7149,-6.7384,-6.7383,-6.7544,-6.7805,-6.7778,-6.8038,-6.8082,-6.8171,-6.8342,-6.8267,-6.843,-6.8418,-6.8584,-6.8586,-6.8849,-6.889,-6.8908,-6.8907,-6.8918,-6.8916,-6.8983,-6.8957,-6.889,-6.8886,-6.8883,-6.888,0,-6.7591,-6.7599,-6.7877,-6.7966,-6.7994,-6.8183,-6.8261,-6.8416,-6.8437,-6.8655,-6.8705,-6.874,-6.8932,-6.8943,-6.9166,-6.9167,-6.9488,-6.9454,-6.9451,-6.9446,-6.9655,-6.9638,-7.0323,-7.0414,-6.9811,-6.9816,-6.9821,0,-6.7885,-6.8063,-6.817,-6.8278,-6.834,-6.8514,-6.862,-6.8601,-6.8715,-6.8855,-6.8995,-6.9178,-6.9325,-6.9637,-6.9686,-6.9856,-6.9829,-7.0057,-6.9854,-6.9861,-6.9838,-6.983,-6.985,-7.0098,-7.0105,-7.011,-7.0115,0,-6.8409,-6.8405,-6.8557,-6.8714,-6.8842,-6.8965,-6.9079,-6.9172,-6.9167,-6.93,-6.9493,-6.9606,-6.9832,-7.0018,-7.0185,-7.0247,-7.0184,-7.0177,-7.0236,-7.0251,-7.0244,-7.0255,-6.9564,-7.0163,-7.0158,-7.0155,-7.0152,-7.015,-6.879,-6.8944,-6.9045,-6.9219,-6.9302,-6.9411,-6.9562,-6.9601,-6.976,-6.9941,-6.992,-7.0137,-7.0246,-7.0462,-7.0538,-7.071,-7.0633,-7.0716,-7.0738,-7.076,-7.0784,-7.0212,-7.074,-7.0739,-7.0737,-7.0736,-7.0735,0,-6.9314,-6.9373,-6.9533,-6.9694,-6.9833,-6.9755,-6.9878,-7.0001,-7.0191,-7.0295,-7.044,-7.0665,-7.0845,-7.0908,-7.1084,-7.121,-7.1186,-7.1258,-7.1251,-7.1268,-7.0841,-7.0775,-7.1275,-7.1275,-7.1275,-7.1274,-7.1274,-7.1274,-6.9603,-6.9862,-6.987,-7.0171,-7.0229,-7.0438,-7.0516,-7.0618,-7.0702,-7.0955,-7.1103,-7.114,-7.123,-7.1412,-7.1576,-7.159,-7.1661,-7.1747,-7.1749,-7.1351,-7.1297,-7.1245,-7.1183,-7.1761,-7.1761,-7.2162,-7.2165,-7.2168]},{"header":{"parameterUnit":"m.s-1","parameterCategory":1,"la1":30.2991,"la2":30.254,"lo1":-89.0895,"lo2":-89.0444,"dy":0.0017,"dx":0.0017,"nx":28,"ny":28,"refTime":"2023-10-11T03:00:00:Z","depth":0,"parameterNumber":3,"parameterNumberName":"V-component_of_WINDS"},"data":[0,0,0,0,0,0,0,0,0,0,0,0,0,0,0,0,0,0,0,0,0,0,0,0,0,0,0,0,0,0,0,0,0,0,0,0,0,0,0,0,0,0,0,0,0,0,0,0,0,0,0,0,0,0,0,0,0,0,-6.3917,-6.3915,0,-6.3762,-6.376,-6.3758,-6.3647,-6.3646,-6.3645,-6.3645,-6.3477,-6.3473,-6.3469,0,0,0,0,0,0,0,0,0,0,0,0,0,-6.4108,-6.4105,-6.3917,-6.3915,-6.3913,-6.3762,-6.376,-6.3758,-6.3647,-6.3646,-6.3645,-6.3644,-6.3478,-6.3474,-6.3469,0,0,0,0,0,0,0,0,0,0,0,0,0,-6.3996,-6.4104,-6.3917,-6.384,-6.3832,-6.3762,-6.376,-6.3757,-6.3648,-6.3646,-6.3645,-6.3644,-6.3479,-6.3474,-6.3469,-6.3461,0,0,-6.3452,-6.3449,0,0,0,0,0,0,0,0,-6.4003,-6.3989,-6.3853,-6.3845,-6.3836,-6.3723,-6.3765,-6.3657,-6.3648,-6.3717,-6.3645,-6.3643,-6.3559,-6.3547,-6.352,-6.3453,-6.3446,-6.3451,-6.3448,-6.3446,-6.3444,0,0,0,0,0,0,0,-6.401,-6.3995,-6.3855,-6.3852,-6.3841,-6.381,-6.3792,-6.3744,-6.3647,-6.3711,-6.3703,-6.3686,-6.3554,-6.3526,-6.3515,-6.3443,-6.3451,-6.3447,-6.3443,-6.3441,-6.3358,-6.3359,0,0,0,0,0,0,-6.4032,-6.4002,-6.386,-6.3851,-6.3918,-6.3808,-6.3788,-6.376,-6.3647,-6.3629,-6.3688,-6.3682,-6.3536,-6.3522,-6.3509,-6.3491,-6.3446,-6.3441,-6.3437,-6.3357,-6.3358,-6.3359,0,0,0,0,0,0,-6.4036,-6.402,-6.3866,-6.3924,-6.3902,-6.3806,-6.3775,-6.3758,-6.373,-6.363,-6.3611,-6.3678,-6.3534,-6.3517,-6.3474,-6.3484,-6.3438,-6.3433,-6.3356,-6.3357,-6.3359,-6.3457,0,0,0,0,0,0,-6.4042,-6.4022,-6.4021,-6.3925,-6.39,-6.3837,-6.3776,-6.3756,-6.3722,-6.3713,-6.3615,-6.3598,-6.3532,-6.3482,-6.3468,-6.3476,-6.3429,-6.3354,-6.3356,-6.3358,-6.3452,-6.3462,-6.347,0,0,0,0,0,-6.4049,-6.4054,-6.4022,-6.4005,-6.3897,-6.3838,-6.3823,-6.375,-6.3723,-6.3719,-6.3654,-6.3601,-6.3485,-6.3479,-6.3462,-6.3468,-6.3353,-6.3356,-6.3358,-6.3448,-6.346,-6.3469,0,0,0,0,0,0,-6.4151,-6.404,-6.4003,-6.3977,-6.3918,-6.382,-6.3813,-6.3765,-6.371,-6.3703,-6.3611,-6.359,-6.3556,-6.3507,-6.3502,-6.3452,-6.3412,-6.3411,-6.3487,-6.3497,-6.3505,-6.3518,-6.3424,0,0,0,0,0,-6.4171,-6.4136,-6.4039,-6.4025,-6.3998,-6.3911,-6.3882,-6.3831,-6.3765,-6.3739,-6.367,-6.3606,-6.3554,-6.3522,-6.347,-6.3444,-6.3419,-6.3439,-6.3448,-6.3455,-6.3456,-6.3436,-6.3443,-6.3367,-6.3367,-6.3367,0,0,-6.4211,-6.4146,-6.4129,-6.4044,-6.3992,-6.3955,-6.389,-6.3854,-6.3824,-6.3732,-6.3688,-6.3635,-6.3556,-6.3522,-6.3502,-6.348,-6.3471,-6.3459,-6.3465,-6.3461,-6.3439,-6.3446,-6.3453,-6.3369,-6.3369,-6.3369,0,0,-6.4265,-6.4213,-6.4195,-6.4145,-6.4068,-6.401,-6.4005,-6.3913,-6.3876,-6.383,-6.376,-6.372,-6.3635,-6.3581,-6.3542,-6.3573,-6.3521,-6.3558,-6.3603,-6.3585,-6.3591,-6.3596,-6.3605,-6.361,-6.3558,-6.3558,-6.3559,0,-6.4324,-6.4268,-6.4192,-6.4159,-6.4122,-6.4039,-6.4018,-6.3972,-6.3881,-6.3855,-6.3831,-6.3721,-6.3662,-6.3612,-6.362,-6.3591,-6.3581,-6.3569,-6.3597,-6.3601,-6.3604,-6.3612,-6.3616,-6.3563,-6.3563,-6.3562,-6.3562,0,-6.4343,-6.4305,-6.4299,-6.4216,-6.4178,-6.4152,-6.4068,-6.4038,-6.3988,-6.3932,-6.3884,-6.381,-6.374,-6.3724,-6.3675,-6.3666,-6.3654,-6.3615,-6.3572,-6.3618,-6.3624,-6.3626,-6.3571,-6.3569,-6.3567,-6.3566,0,0,-6.4459,-6.4333,-6.4332,-6.4292,-6.42,-6.4167,-6.4134,-6.4069,-6.4044,-6.3982,-6.3951,-6.3879,-6.3842,-6.3798,-6.3741,-6.3725,-6.3752,-6.3686,-6.3683,-6.3701,-6.3735,-6.3767,-6.3772,-6.3716,-6.3717,-6.3717,-6.3742,0,-6.4499,-6.4441,-6.437,-6.4334,-6.4296,-6.4215,-6.4186,-6.4124,-6.4069,-6.4025,-6.3962,-6.3913,-6.3868,-6.384,-6.3821,-6.3753,-6.3758,-6.375,-6.3684,-6.3682,-6.3707,-6.3775,-6.3808,-6.3836,-6.3744,-6.3744,-6.3744,0,-6.4538,-6.4484,-6.4446,-6.4355,-6.4336,-6.4312,-6.4244,-6.4205,-6.4131,-6.4091,-6.4042,-6.3981,-6.3939,-6.3901,-6.384,-6.3836,-6.3804,-6.3766,-6.3765,-6.3757,-6.3717,-6.3768,-6.3843,-6.3847,-6.3747,-6.3747,-6.3747,0,-6.4627,-6.4543,-6.4509,-6.4477,-6.437,-6.4355,-6.4309,-6.4234,-6.4198,-6.4137,-6.4112,-6.4046,-6.401,-6.3959,-6.388,-6.386,-6.3826,-6.3782,-6.379,-6.3792,-6.3788,-6.3789,-6.3859,-6.3767,-6.3767,-6.3767,-6.3767,0,-6.4679,-6.4659,-6.4547,-6.4526,-6.4499,-6.4415,-6.4389,-6.4335,-6.4269,-6.4233,-6.4157,-6.4124,-6.4022,-6.3976,-6.3914,-6.3871,-6.3855,-6.382,-6.3804,-6.3827,-6.3832,-6.3806,-6.3802,-6.3768,-6.3768,-6.3767,-6.3767,0,-6.4774,-6.4699,-6.4656,-6.4558,-6.4533,-6.4517,-6.4431,-6.4406,-6.4345,-6.4301,-6.4285,-6.4189,-6.4131,-6.4047,-6.3962,-6.392,-6.3887,-6.386,-6.3913,-6.3903,-6.3916,-6.3916,-6.3971,-6.3974,-6.3881,-6.3882,-6.3883,0,-6.4813,-6.4796,-6.4696,-6.4668,-6.4626,-6.4581,-6.4544,-6.4459,-6.4423,-6.4336,-6.432,-6.4257,-6.4201,-6.4111,-6.4031,-6.3965,-6.3937,-6.396,-6.3926,-6.395,-6.3936,-6.3939,-6.3936,-6.3969,-6.3971,-6.3972,-6.3973,0,-6.489,-6.4853,-6.4805,-6.4743,-6.4702,-6.4648,-6.459,-6.457,-6.4471,-6.4434,-6.4375,-6.4332,-6.4246,-6.4182,-6.4105,-6.4053,-6.3996,-6.3984,-6.3982,-6.4007,-6.4038,-6.4021,-6.3936,-6.3983,-6.3982,-6.3981,-6.3981,-6.398,-6.4958,-6.4938,-6.4865,-6.4812,-6.476,-6.4707,-6.4678,-6.4614,-6.4565,-6.449,-6.4441,-6.4384,-6.4306,-6.4197,-6.4148,-6.4099,-6.4075,-6.4073,-6.4072,-6.4073,-6.4082,-6.4045,-6.4084,-6.4084,-6.4083,-6.4083,-6.4083,0,-6.5031,-6.4979,-6.4932,-6.4855,-6.4812,-6.4764,-6.4696,-6.4663,-6.4615,-6.4549,-6.4497,-6.4427,-6.4364,-6.4279,-6.4209,-6.4186,-6.4158,-6.4171,-6.4172,-6.416,-6.4107,-6.4115,-6.4195,-6.4195,-6.4195,-6.4195,-6.4195,-6.4195,-6.5064,-6.5028,-6.4982,-6.4917,-6.4863,-6.481,-6.4775,-6.4724,-6.4671,-6.4598,-6.4547,-6.4492,-6.4417,-6.4341,-6.428,-6.4256,-6.4233,-6.4255,-6.4223,-6.4174,-6.4164,-6.4155,-6.4162,-6.425,-6.4251,-6.428,-6.4281,-6.4281]}]]